Regional Weather Roundup
Issued by NWS

Home | Current Version | Previous Version | Graphics & Text | Print | Product List | Glossary On
Versions: 1 2 3 4 5 6 7 8 9 10 11 12 13 14 15 16 17 18 19 20 21 22 23 24 25 26 27 28 29 30 31 32 33 34 35 36 37 38 39 40 41 42 43 44 45 46 47 48 49 50
000
ASUS43 KOAX 261602
RWRNE

WEATHER ROUNDUP FOR NEBRASKA
NATIONAL WEATHER SERVICE OMAHA NE
1100 AM CDT MON JUN 26 2017

NOTES: SATELLITE DATA IS BEING USED TO AUGMENT CLOUD COVER ABOVE
       12000 FEET.
       "FAIR" INDICATES FEW OR NO CLOUDS BELOW 12,000 FEET WITH NO
       SIGNIFICANT WEATHER AND/OR OBSTRUCTIONS TO VISIBILITY.

  * THESE STATIONS DO NOT REPORT WEATHER SUCH AS RAIN...SNOW OR FOG.

NEZ001>004-019>022-054>056-261700-
NEBRASKA PANHANDLE

CITY           SKY/WX    TMP DP  RH WIND       PRES   REMARKS
SCOTTSBLUFF    SUNNY     71  50  47 NE3       30.24F
ALLIANCE       SUNNY     70  43  37 E12       30.24S
CHADRON        SUNNY     70  40  33 E9G18     30.24F
GORDON         FAIR      67  41  38 E12       30.26S
KIMBALL        SUNNY     73  52  48 NW5       30.26F
SIDNEY         SUNNY     75  56  51 VRB6      30.24F
$$

NEZ057>060-069>072-079>082-261700-
SOUTHWEST NEBRASKA

CITY           SKY/WX    TMP DP  RH WIND       PRES   REMARKS
NORTH PLATTE   CLOUDY    66  61  84 N6        30.20F
IMPERIAL       SUNNY     71  57  61 N7        30.21F
LEXINGTON      MOSUNNY   69  60  72 SW3       30.19F
MCCOOK         PTSUNNY   71  59  65 CALM      30.19F
OGALLALA       MOSUNNY   74  57  55 NE10      30.21S
$$

NEZ005>010-023>029-035>040-094-261700-
NORTH CENTRAL NEBRASKA

CITY           SKY/WX    TMP DP  RH WIND       PRES   REMARKS
VALENTINE      SUNNY     71  38  29 NE13      30.23F
AINSWORTH      SUNNY     67  46  45 E12       30.24S
BROKEN BOW     PTSUNNY   71  55  56 N7        30.19S
O`NEILL        SUNNY     68  47  46 NE12G18   30.23S
ORD            SUNNY     73  49  42 NE12      30.18S
THEDFORD       SUNNY     71  41  33 E18       30.24S
$$

NEZ041-046>049-061>064-073>077-083>087-261700-
SOUTH CENTRAL NEBRASKA

CITY           SKY/WX    TMP DP  RH WIND       PRES   REMARKS
GRAND ISLAND   PTSUNNY   70  61  73 NW10      30.18F
AURORA         SUNNY     73  59  61 W10       30.18S
HASTINGS       SUNNY     71  57  61 W13       30.19F
HEBRON         CLOUDY    72  58  61 W3        30.18F
HOLDREGE       PTSUNNY   67  59  76 W8        30.20F
KEARNEY *      CLOUDY    70  57  64 W7        30.19F
YORK           LGT RAIN  73  57  56 W13       30.17F
$$

NEZ011>018-030>034-042>045-261700-
NORTHEAST NEBRASKA

CITY           SKY/WX    TMP DP  RH WIND       PRES   REMARKS
NORFOLK        SUNNY     70  52  52 NE10      30.18S
ALBION         SUNNY     72  51  46 N8        30.18S
BLAIR          MOSUNNY   66  57  71 S6        30.19S
FREMONT        SUNNY     68  58  70 CALM      30.18F
TEKAMAH        SUNNY     68  54  60 VRB5      30.18F
WAYNE          MOSUNNY   66  54  65 NE9       30.20S
$$

NEZ050>053-065>068-078-088>093-261700-
SOUTHEAST NEBRASKA

CITY           SKY/WX    TMP DP  RH WIND       PRES   REMARKS
LINCOLN        CLOUDY    65  58  78 S8        30.19F
OMAHA EPPLEY   MOSUNNY   65  56  72 S7        30.19S
BEATRICE       PTSUNNY   67  56  69 E9        30.20F
FALLS CITY     TSTM      61  55  81 E9        30.23R
NEBRASKA CITY  CLOUDY    60  60  98 S10       30.20F
PLATTSMOUTH    PTSUNNY   63  56  79 S13       30.19F
$$

NEZ044-045-051>053-067-261700-
OMAHA AREA

CITY           SKY/WX    TMP DP  RH WIND       PRES   REMARKS
OMAHA EPPLEY   MOSUNNY   65  56  72 S7        30.19S
BLAIR          MOSUNNY   66  57  71 S6        30.19S
FREMONT        SUNNY     68  58  70 CALM      30.18F
MILLARD        CLOUDY    66  58  74 S6        30.19S
OFFUTT AFB     PTSUNNY   64  56  77 SE6       30.19S
PLATTSMOUTH    PTSUNNY   63  56  79 S13       30.19F
WAHOO          PTSUNNY   67  54  63 SE3       30.17F
$$




USA.gov is the U.S. government's official web portal to all federal, state and local government web resources and services.